Location: Star Camp Observatory
(34.2910°N, 116.3827°W)
Time: 22:53:07
(UTC-07:00)

Envisat - Visible Passes

Search period start: 17 October 2019 00:00
Search period end: 27 October 2019 00:00
Orbit: 764 x 766 km, 98.1° (Epoch: 17 October)

Date Brightness Start Highest point End Pass type
(mag) Time Alt. Az. Time Alt. Az. Time Alt. Az.
17 Oct 3.1 19:00:25 10° S 19:05:29 83° WSW 19:10:36 10° NNW visible
18 Oct 3.4 18:24:07 10° SE 18:28:51 41° ENE 18:33:35 10° N visible
18 Oct 5.7 20:04:31 10° SW 20:07:59 18° W 20:11:28 10° NW visible
19 Oct 4.2 19:26:13 10° S 19:31:01 44° W 19:35:52 10° NNW visible
20 Oct 2.9 18:49:11 10° SSE 18:54:15 77° ENE 18:59:20 10° N visible
21 Oct 5.3 19:52:36 10° SSW 19:56:38 24° W 20:00:42 10° NW visible
22 Oct 6.3 06:26:58 10° ENE 06:29:46 15° E 06:32:33 10° SE visible
22 Oct 3.7 19:14:46 10° S 19:19:44 57° W 19:24:44 10° NNW visible
23 Oct 3.0 18:38:02 10° SSE 18:43:00 59° ENE 18:48:00 10° N visible
23 Oct 6.1 20:20:12 10° WSW 20:22:21 13° W 20:24:30 10° WNW visible
24 Oct 4.9 19:40:52 10° SSW 19:45:19 31° W 19:49:47 10° NW visible
25 Oct 6.7 06:17:03 10° ENE 06:18:24 11° E 06:19:44 10° ESE visible
25 Oct 3.2 19:03:24 10° S 19:08:27 75° WSW 19:13:33 10° NNW visible
26 Oct 3.3 18:26:59 10° SE 18:31:47 46° ENE 18:36:37 10° N visible
26 Oct 5.8 20:07:48 10° SW 20:10:58 17° W 20:14:10 10° NW visible
